Regional Weather Roundup
Issued by NWS

Home | Current Version | Previous Version | Text Only | Print | Product List | Glossary Off
Versions: 1 2 3 4 5 6 7 8 9 10 11 12 13 14 15 16 17 18 19 20 21 22 23 24 25 26 27 28 29 30 31 32 33 34 35 36 37 38 39 40 41 42 43 44 45 46 47 48 49 50

000
ASUS45 KCYS 281110
RWRWY

WYOMING REGIONAL WEATHER ROUNDUP
NATIONAL WEATHER SERVICE CHEYENNE WY
500 AM MDT SAT MAR 28 2015

NOTE:  "FAIR" INDICATES FEW OR NO CLOUDS BELOW 12,000 FEET
WITH NO SIGNIFICANT WEATHER AND/OR OBSTRUCTIONS TO VISIBILITY.

WYZ001-281200-
YELLOWSTONE NATIONAL PARK

CITY           SKY/WX    TMP DP  RH WIND       PRES   REMARKS
LK YELLOWSTONE   N/A     25  23  92 CALM      30.17F
W YELLOWSTONE  NOT AVBL

$$
WYZ002>013-054>058-071-098>099-281200-
NORTHERN WYOMING

CITY           SKY/WX    TMP DP  RH WIND       PRES   REMARKS
JACKSON        FAIR      28  27  93 N9        30.14F WCI  20
CODY           FAIR      55  28  35 W5        29.98S
GREYBULL       FAIR      43  29  57 VRB3      29.96F
WORLAND        FAIR      41  30  65 CALM      29.96F
SHERIDAN       FAIR      43  30  60 CALM      29.90S
BUFFALO        FAIR      51  29  42 SW7       29.95S
GILLETTE       FAIR      51  29  42 VRB3      29.92F
HULETT         FAIR      41  32  70 SW9       29.93S
NEWCASTLE      FAIR      36  28  75 N6        29.97S WCI  31

$$
WYZ014>020-022>026-101>103-281200-
CENTRAL WYOMING

CITY           SKY/WX    TMP DP  RH WIND       PRES   REMARKS
BIG PINEY      FAIR      23  20  88 NE3       30.18F
PINEDALE       FAIR      27  27 100 NW7       30.19F WCI  19
DUBOIS         FAIR      37  28  70 NW13G21   30.10F WCI  29
LANDER         FAIR      45  22  40 S3        30.04F
RIVERTON       FAIR      46  29  51 W13       30.04F
CASPER         FAIR      44  26  49 SW15      30.03F
DOUGLAS        FAIR      38  27  64 N6        30.02S WCI  33

$$
WYZ021-027>030-104>119-281200-
SOUTHERN WYOMING

CITY           SKY/WX    TMP DP  RH WIND       PRES   REMARKS
EVANSTON       FAIR      39  25  57 SW9       30.20F WCI  33
KEMMERER       FAIR      32  28  86 NW8       30.20F WCI  25
FORT BRIDGER   FAIR      46  24  41 W8        30.22F
ROCK SPRINGS   FAIR      37  26  64 S7        30.18F WCI  32
DIXON          FAIR      33  25  74 CALM      30.23S
RAWLINS        FAIR      43  22  43 SW16      30.15S
SARATOGA       FAIR      32  25  74 MISG      30.18S
LARAMIE        FAIR      32  22  66 W12       30.14S WCI  23
CHEYENNE       FAIR      46  23  40 W15       30.08S
TORRINGTON     FAIR      38  25  59 CALM      29.98F
PINE BLUFFS    FAIR      32  27  80 W5        30.05S WCI  27

$$



USA.gov is the U.S. government's official web portal to all federal, state and local government web resources and services.